STARLINK-1073 (44914 NORAD) Tracking and Keplerian Element Data

This shows tracking and keplerian element data for the satellite.

Feedback or suggestion? Click here.




ElementValue
Catalog44914
NameSTARLINK-1073
Epoch Orbit642
Epoch Day48.41667824
Epoch Year2020
RAAN198.0152
Inclination53.0021
Eccentricity0.0001537
Argument of Perigee62.9318
Mean Anonmoly197.9566
Mean Motion15.12573259
Decay Rate-0.00079435
L11 44914U 20001A 20048.41667824 -.00079435 00000-0 -45338-2 0 9992
L22 44914 53.0021 198.0152 0001537 62.9318 197.9566 15.12573259 6421

Live tracking and technical data element details for STARLINK-1073 (NORAD 44914). STARLINK-1073 can be tracked NOW for your location showing map with azimuth and elevation plus other details from your city location.

Track the satellite on the map from your city or location and see movement details for azimuth, elevation, latitude, longitude, range, height, and movement on the map or in text.







IsCatalogInMostPopularTable: catalog: 44914, numindb: 11
Update: records affected: 1



GetName: 44914 STARLINK-1073

Hit Count: updated at: Tue, 18 Feb 2020 01:03:56 GMT